Flag for Moldova Weather past 2 weeks in Bălți, Moldova

Now
32 °F

Chilly.


Feels Like: 26 °F
Forecast: 29 / 39 °F
Wind: 6 mph from East

Location: Baltsi-Leadoveni - The North of Moldova

Current Time: Feb 1, 2015 at 8:19:52 AM

Latest Report: Feb 1, 2015 at 8:00 AM


Visibility: N/A

Pressure: 29.36 "Hg

Humidity: 64%

Dew point: 21 °F

Location of BălțiLocation

Historic Weather in Bălți — Graph

°F

Bălți temperature yesterday

Maximum temperature yesterday: 48 °F (at 3:00 PM)
Minimum temperature yesterday: 32 °F (at 10:00 PM)
Average temperature yesterday: 43 °F

Past Weeks' High & Low Weather Summary

 TemperatureHumidityPressure
High48 °F (Jan 31, 3:00 PM)100% (Jan 17, 7:00 AM)30.18 "Hg (Jan 17, 7:00 AM)
Low28 °F (Jan 25, 8:00 AM)46% (Jan 31, 3:00 PM)28.94 "Hg (Jan 31, 6:30 AM)
Average34 °F94%29.88 "Hg
* Reported Jan 17 7:00 AM — Feb 1 7:00 AM, Bălți, Weather by CustomWeather, © 2014

Note: Actual official high and low records may vary slightly from our data, if they occured in-between our weather recording intervals... More about our weather records

Advertising

Bălți weather history for previous 24 hours

 ConditionsComfort  
Time TempWeatherWind HumidityBarometerVisibility
7:00 AM
Feb 1
32 °FChilly.6 mph64%29.39 "HgN/A
6:30 AM34 °FChilly.3 mph60%29.39 "HgN/A
6:00 AM34 °FChilly.6 mph60%29.39 "HgN/A
5:30 AM36 °FChilly.6 mph56%29.39 "HgN/A
5:00 AM36 °FChilly.6 mph52%29.39 "HgN/A
4:30 AM36 °FChilly.5 mph56%29.39 "HgN/A
4:00 AM34 °FChilly.7 mph60%29.42 "HgN/A
3:00 AM34 °FChilly.8 mph60%29.39 "HgN/A
2:30 AM32 °FChilly.8 mph64%29.42 "HgN/A
1:00 AM36 °FChilly.5 mph56%29.39 "HgN/A
12:00 AM34 °FChilly.8 mph60%29.39 "HgN/A
11:30 PM
Jan 31
36 °FChilly.8 mph56%29.39 "HgN/A
10:00 PM32 °FChilly.8 mph64%29.33 "HgN/A
9:00 PM36 °FChilly.12 mph60%29.30 "HgN/A
8:30 PM36 °FChilly.13 mph56%29.30 "HgN/A
8:00 PM36 °FChilly.9 mph60%29.27 "HgN/A
7:00 PM36 °FChilly.14 mph60%29.24 "HgN/A
6:30 PM37 °FChilly.13 mph60%29.21 "HgN/A
6:00 PM39 °FChilly.18 mph52%29.18 "HgN/A
5:00 PM41 °FPassing clouds.24 mph57%29.12 "HgN/A
4:30 PM43 °FPassing clouds.24 mph57%29.09 "HgN/A
4:00 PM45 °FScattered clouds.22 mph57%29.06 "HgN/A
3:00 PM48 °FPassing clouds.33 mph46%29.03 "HgN/A
2:00 PM46 °FPassing clouds.23 mph62%29.00 "HgN/A
1:00 PM46 °FSunny.16 mph82%28.97 "Hg10 mi
12:00 PM46 °FPassing clouds.12 mph93%28.97 "HgN/A
11:30 AM46 °FScattered clouds.10 mph93%28.97 "HgN/A
11:00 AM46 °FScattered clouds.15 mph93%28.97 "HgN/A
10:00 AM46 °FSprinkles. Broken clouds.17 mph93%28.97 "HgN/A
9:00 AM46 °FSprinkles. More clouds than sun.20 mph87%28.97 "HgN/A
8:30 AM46 °FPassing clouds.21 mph87%28.97 "HgN/A
8:00 AM46 °FCool.23 mph87%28.94 "HgN/A
Weather by CustomWeather, © 2014

See weather overviewHow to use our weather pages